When you browse on this site, cookies collect data to enhance your experience and personalize the content and advertising you see.
Visit our Privacy Policy to learn more. By continuing to use the site, you agree to this use of cookies and data.
  • In Hungary
  • List of Countries
  • For 7 days
  • Water Temperature
  • Satellite Maps
  • Weather Map
  • News
  • Weather Widgets
  • user-avatar
    Login

    Hourly Weather Megri

    Today, 16 December, Sunday

    Time Temperature Precipitation Wind Pressure Humidity
    00:00 +2°C° 0 mm 1 mps 624 mmHg 58%
    01:00 +2°C° 0 mm 1 mps 624 mmHg 58%
    02:00 -1°C° 0 mm 2 mps 624 mmHg 58%
    03:00 -1°C° 0 mm 2 mps 624 mmHg 59%
    04:00 -1°C° 0 mm 2 mps 624 mmHg 59%
    05:00 -1°C° 0 mm 2 mps 624 mmHg 60%
    06:00 -1°C° 0 mm 2 mps 624 mmHg 60%
    07:00 +1°C° 0 mm 2 mps 624 mmHg 57%
    08:00 +2°C° 0 mm 2 mps 625 mmHg 54%
    09:00 +4°C° 0 mm 2 mps 625 mmHg 49%
    10:00 +5°C° 0 mm 2 mps 625 mmHg 47%
    11:00 +5°C° 0 mm 2 mps 625 mmHg 45%
    12:00 +6°C° 0 mm 2 mps 625 mmHg 42%
    13:00 +6°C° 0 mm 2 mps 625 mmHg 43%
    14:00 +6°C° 0 mm 2 mps 625 mmHg 43%
    15:00 +6°C° 0 mm 2 mps 625 mmHg 43%
    16:00 +6°C° 0 mm 1 mps 625 mmHg 47%
    17:00 +5°C° 0 mm 1 mps 624 mmHg 50%
    18:00 +4°C° 0 mm 1 mps 624 mmHg 54%
    19:00 +4°C° 0 mm 1 mps 624 mmHg 54%
    20:00 +3°C° 0 mm 1 mps 624 mmHg 54%
    21:00 +3°C° 0 mm 1 mps 624 mmHg 54%
    22:00 +3°C° 0 mm 1 mps 624 mmHg 54%
    23:00 +3°C° 0 mm 1 mps 624 mmHg 54%

    Tomorrow, 17 December, Monday

    Time Temperature Precipitation Wind Pressure Humidity
    00:00 +3°C° 0 mm 1 mps 624 mmHg 54%
    01:00 +2°C° 0 mm 1 mps 624 mmHg 55%
    02:00 +2°C° 0 mm 1 mps 623 mmHg 55%
    03:00 +2°C° 0 mm 1 mps 623 mmHg 56%
    04:00 +2°C° 0 mm 1 mps 623 mmHg 56%
    05:00 +2°C° 0 mm 1 mps 623 mmHg 56%
    06:00 +2°C° 0 mm 1 mps 623 mmHg 56%
    07:00 +3°C° 0 mm 1 mps 623 mmHg 55%
    08:00 +4°C° 0 mm 1 mps 623 mmHg 54%
    09:00 +5°C° 0 mm 1 mps 623 mmHg 52%
    10:00 +5°C° 0.1 mm 1 mps 623 mmHg 51%
    11:00 +5°C° 0.1 mm 1 mps 623 mmHg 50%
    12:00 +5°C° 0.1 mm 2 mps 623 mmHg 49%
    13:00 +4°C° 0.4 mm 2 mps 623 mmHg 56%
    14:00 +5°C° 0.4 mm 1 mps 622 mmHg 62%
    15:00 +4°C° 0.4 mm 1 mps 622 mmHg 69%
    16:00 +4°C° 0.1 mm 1 mps 622 mmHg 72%
    17:00 +3°C° 0.1 mm 1 mps 621 mmHg 74%
    18:00 +3°C° 0.1 mm 1 mps 621 mmHg 77%
    19:00 +2°C° 0.1 mm 1 mps 621 mmHg 79%
    20:00 +2°C° 0.1 mm 1 mps 621 mmHg 81%
    21:00 +2°C° 0.1 mm 1 mps 621 mmHg 82%
    22:00 +2°C° 0.4 mm 1 mps 621 mmHg 83%
    23:00 +2°C° 0.4 mm 1 mps 621 mmHg 84%

    Day after tomorrow, 18 December, Tuesday

    Time Temperature Precipitation Wind Pressure Humidity
    00:00 +2°C° 0.4 mm 1 mps 621 mmHg 85%
    01:00 +2°C° 0.6 mm 1 mps 621 mmHg 86%
    02:00 +2°C° 0.6 mm 1 mps 620 mmHg 86%
    03:00 +2°C° 0.6 mm 1 mps 620 mmHg 87%
    04:00 +1°C° 0.3 mm 1 mps 620 mmHg 88%
    05:00 +1°C° 0.3 mm 1 mps 620 mmHg 88%
    06:00 +1°C° 0.3 mm 1 mps 620 mmHg 88%
    07:00 +1°C° 0.4 mm 1 mps 621 mmHg 87%
    08:00 +2°C° 0.4 mm 1 mps 621 mmHg 86%
    09:00 +2°C° 0.4 mm 1 mps 622 mmHg 85%
    10:00 +3°C° 0.2 mm 1 mps 622 mmHg 82%
    11:00 +3°C° 0.2 mm 1 mps 622 mmHg 80%
    12:00 +4°C° 0.2 mm 1 mps 622 mmHg 78%
    13:00 +3°C° 0.1 mm 2 mps 622 mmHg 77%
    14:00 +3°C° 0.1 mm 2 mps 622 mmHg 76%
    15:00 +4°C° 0.1 mm 2 mps 622 mmHg 75%
    16:00 +4°C° 0 mm 1 mps 622 mmHg 77%
    17:00 +3°C° 0 mm 1 mps 623 mmHg 79%
    18:00 +2°C° 0 mm 1 mps 623 mmHg 81%
    19:00 +2°C° 0 mm 1 mps 623 mmHg 82%
    20:00 +2°C° 0 mm 1 mps 623 mmHg 83%
    21:00 +2°C° 0 mm 1 mps 623 mmHg 83%
    22:00 +2°C° 0 mm 1 mps 624 mmHg 84%
    23:00 +2°C° 0 mm 1 mps 624 mmHg 84%

    19 December, Wednesday

    Time Temperature Precipitation Wind Pressure Humidity
    00:00 +2°C° 0 mm 1 mps 624 mmHg 85%
    01:00 +2°C° 0.1 mm 1 mps 624 mmHg 86%
    02:00 +2°C° 0.1 mm 1 mps 624 mmHg 87%
    03:00 +2°C° 0.1 mm 1 mps 624 mmHg 88%
    04:00 +1°C° 0 mm 1 mps 624 mmHg 88%
    05:00 +1°C° 0 mm 1 mps 624 mmHg 88%
    06:00 +1°C° 0 mm 1 mps 624 mmHg 89%
    07:00 +2°C° 0 mm 1 mps 624 mmHg 86%
    08:00 +3°C° 0 mm 1 mps 625 mmHg 84%
    09:00 +3°C° 0 mm 1 mps 625 mmHg 82%
    10:00 +3°C° 0 mm 2 mps 625 mmHg 78%
    11:00 +4°C° 0 mm 2 mps 625 mmHg 75%
    12:00 +4°C° 0 mm 2 mps 624 mmHg 72%
    13:00 +4°C° 0 mm 2 mps 624 mmHg 70%
    14:00 +5°C° 0 mm 2 mps 624 mmHg 68%
    15:00 +5°C° 0 mm 2 mps 623 mmHg 66%
    16:00 +5°C° 0 mm 1 mps 623 mmHg 69%
    17:00 +4°C° 0 mm 1 mps 623 mmHg 72%
    18:00 +2°C° 0 mm 1 mps 623 mmHg 76%
    19:00 +2°C° 0 mm 1 mps 623 mmHg 76%
    20:00 +2°C° 0 mm 1 mps 623 mmHg 77%
    21:00 +2°C° 0 mm 1 mps 623 mmHg 77%
    22:00 +1°C° 0 mm 1 mps 622 mmHg 78%
    23:00 +1°C° 0 mm 1 mps 622 mmHg 78%

    20 December, Thursday

    Time Temperature Precipitation Wind Pressure Humidity
    00:00 +1°C° 0 mm 1 mps 622 mmHg 78%
    01:00 +1°C° 0 mm 1 mps 622 mmHg 78%
    02:00 +1°C° 0 mm 1 mps 622 mmHg 77%
    03:00 +2°C° 0 mm 1 mps 622 mmHg 77%
    04:00 +1°C° 0 mm 1 mps 621 mmHg 78%
    05:00 +1°C° 0 mm 1 mps 621 mmHg 78%
    06:00 +1°C° 0 mm 1 mps 621 mmHg 79%
    07:00 +2°C° 0 mm 1 mps 621 mmHg 77%
    08:00 +2°C° 0 mm 1 mps 622 mmHg 75%
    09:00 +3°C° 0 mm 1 mps 622 mmHg 73%
    10:00 +3°C° 0.2 mm 1 mps 622 mmHg 73%
    11:00 +4°C° 0.2 mm 1 mps 622 mmHg 72%
    12:00 +4°C° 0.2 mm 1 mps 621 mmHg 71%
    13:00 +4°C° 0.2 mm 1 mps 621 mmHg 72%
    14:00 +4°C° 0.2 mm 1 mps 621 mmHg 72%
    15:00 +4°C° 0.2 mm 1 mps 621 mmHg 73%
    16:00 +3°C° 0.1 mm 1 mps 621 mmHg 76%
    17:00 +3°C° 0.1 mm 1 mps 621 mmHg 79%
    18:00 +2°C° 0.1 mm 1 mps 621 mmHg 82%
    19:00 +2°C° 0.1 mm 1 mps 621 mmHg 83%
    20:00 +1°C° 0.1 mm 0 mps 621 mmHg 84%
    21:00 0°C° 0.1 mm 0 mps 621 mmHg 85%
    22:00 0°C° 0.1 mm 0 mps 621 mmHg 85%
    23:00 0°C° 0.1 mm 0 mps 622 mmHg 86%

    21 December, Friday

    Time Temperature Precipitation Wind Pressure Humidity
    00:00 +1°C° 0.1 mm 1 mps 622 mmHg 86%
    01:00 +1°C° 0 mm 1 mps 622 mmHg 86%
    02:00 -1°C° 0 mm 0 mps 622 mmHg 86%
    03:00 -1°C° 0 mm 0 mps 622 mmHg 87%
    04:00 -1°C° 0.1 mm 0 mps 622 mmHg 87%
    05:00 -1°C° 0.1 mm 0 mps 622 mmHg 87%
    06:00 -1°C° 0.1 mm 0 mps 622 mmHg 87%
    07:00 0°C° 0.2 mm 0 mps 622 mmHg 84%
    08:00 0°C° 0.2 mm 0 mps 622 mmHg 81%
    09:00 +1°C° 0.2 mm 0 mps 623 mmHg 78%
    10:00 +2°C° 0.2 mm 1 mps 623 mmHg 77%
    11:00 +3°C° 0.2 mm 1 mps 622 mmHg 75%
    12:00 +3°C° 0.2 mm 1 mps 622 mmHg 73%
    13:00 +3°C° 0.2 mm 1 mps 622 mmHg 73%
    14:00 +4°C° 0.2 mm 1 mps 622 mmHg 72%
    15:00 +4°C° 0.2 mm 1 mps 622 mmHg 71%
    16:00 +3°C° 0.1 mm 1 mps 622 mmHg 75%
    17:00 +2°C° 0.1 mm 1 mps 621 mmHg 78%
    18:00 +1°C° 0.1 mm 0 mps 621 mmHg 82%
    19:00 0°C° 0.1 mm 0 mps 621 mmHg 82%
    20:00 0°C° 0.1 mm 0 mps 621 mmHg 83%
    21:00 +1°C° 0.1 mm 1 mps 621 mmHg 83%
    22:00 +1°C° 0.1 mm 1 mps 621 mmHg 83%
    23:00 +1°C° 0.1 mm 1 mps 621 mmHg 83%
    Show more